OpenBCM V1.08-5-g2f4a (Linux)

Packet Radio Mailbox

IZ3LSV

[San Dona' di P. JN]

 Login: GUEST





  
I0OJJ  > KEPS     12.10.25 01:26l 314 Lines 14999 Bytes #114 (0) @ AMSAT
BID : ORB25285.1
Read: GUEST
Subj: 2Line Orbital Elements 25285.AMSAT
Path: IZ3LSV<IK6IHL<IK7NXU<HB9ON<DK0WUE<PI8ZTM<CX2SA<EA2RCF<I0OJJ
Sent: 251012/0021z @:I0OJJ.ITA.EU [Rome] obcm1.08-11-2-gbfe9
From: I0OJJ @ I0OJJ.ITA.EU (Gustavo)
To:   KEPS @ AMSAT
X-Info: This message was generated automatically


QST de W1STR

AMSAT Orbital Elements for Amateur Satellites in TLE Format
From Orbital Analysis Office
New England Sci-Tech STEM Education Center
Natick MA October 12, 2025
To all radio amateurs


These element sets describe the orbits of various satellites 
in use by the amateur radio community. For details see:
www.amsat.org/keplerian-elements-formats/

A daily update of element sets is available at:
www.amsat.org/tle/daily-bulletin.txt
or without bulletin text:
www.amsat.org/tle/dailytle.txt


AO-07
1 07530U 74089B   25284.24204363 -.00000047  00000-0 -30187-5 0  9995
2 07530 101.9989 289.8430 0011923 246.0497 124.6977 12.53692338329323
UO-11
1 14781U 84021B   25284.13652754  .00001966  00000-0  21047-3 0  9999
2 14781  97.7712 248.1857 0006148 294.2025  65.8549 14.89820230220035
AO-27
1 22825U 93061C   25284.13353183  .00000146  00000-0  72755-4 0  9997
2 22825  98.7234 346.2256 0009480 109.1642 251.0568 14.30842962671387
FO-29
1 24278U 96046B   25284.22483058 -.00000019  00000-0  15935-4 0  9999
2 24278  98.5536 161.7325 0350400  22.3375 339.2612 13.53256541439490
NOAA-15
1 25338U 98030A   25284.28712329  .00000185  00000-0  93724-4 0  9999
2 25338  98.5291 306.4095 0010230   3.6602 356.4652 14.27033299425795
GO-32
1 25397U 98043D   25283.90666809  .00000106  00000-0  65781-4 0  9992
2 25397  98.9856 265.6849 0001070 162.0652 198.0564 14.24350440415845
ISS
1 25544U 98067A   25284.17253726  .00010760  00000-0  19735-3 0  9996
2 25544  51.6323  92.2337 0000813 239.6320 120.4589 15.49837675533156
NO-44
1 26931U 01043C   25284.07928684  .00000200  00000-0  10589-3 0  9992
2 26931  67.0505 168.5149 0007093 273.7518  86.2773 14.31802563254784
SO-50
1 27607U 02058C   25284.12574165  .00001812  00000-0  23702-3 0  9998
2 27607  64.5533 179.0666 0068108 308.3645  51.1353 14.82062915227532
CO-55
1 27844U 03031E   25284.27149984  .00000426  00000-0  20395-3 0  9991
2 27844  98.6790 290.9730 0009512 181.7075 178.4073 14.24101291156245
CO-57
1 27848U 03031J   25283.99704125  .00000343  00000-0  17048-3 0  9996
2 27848  98.6819 290.6134 0009034 200.7072 159.3741 14.23420770155923
RS-22
1 27939U 03042A   25284.28391528  .00001659  00000-0  26829-3 0  9999
2 27939  98.3379  96.8361 0011053 343.6709 119.0238 14.72701676178906
CO-58
1 28895U 05043F   25283.82360609  .00002314  00000-0  38079-3 0  9998
2 28895  98.2676  69.8748 0013316 276.8951  83.0740 14.71508015 65067
CO-65
1 32785U 08021C   25284.26852754  .00007247  00000-0  50218-3 0  9995
2 32785  97.8016 256.5506 0010605 143.8933 216.3012 15.05900365947683
CO-66
1 32791U 08021J   25283.46680670  .00017734  00000-0  77208-3 0  9999
2 32791  97.7406 266.5954 0006463  98.8331 261.3636 15.22272614949163
RS-30
1 32953U 08025A   25284.25912809  .00000020  00000-0  74243-4 0  9990
2 32953  82.5033 150.2860 0019562 132.9753 227.2970 12.43169226788761
NOAA-19
1 33591U 09005A   25284.22943686  .00000071  00000-0  62059-4 0  9990
2 33591  98.9847 349.5548 0013982  18.7762 341.3923 14.13416779859314
SRMSAT
1 37841U 11058D   25284.26370410  .00000471  00000-0  11220-3 0  9993
2 37841  19.9710 126.0608 0011732 345.5662 177.1264 14.11478901722601
ZACUBE-1
1 39417U 13066B   25284.29411671  .00008051  00000-0  67353-3 0  9993
2 39417  97.7951 240.8296 0042740   1.8956 358.2420 14.98027273643427
Delfi-N3xt
1 39428U 13066N   25284.26693553  .00010569  00000-0  10264-2 0  9998
2 39428  97.8291 200.6222 0080107 314.0624  45.4016 14.90385876637483
GOMX-1
1 39430U 13066Q   25284.27806146  .00002527  00000-0  39251-3 0  9999
2 39430  97.6673 135.3068 0131717 155.7377 205.0108 14.68186059633376
LO-74
1 39440U 13066AA  25284.27908646  .00004698  00000-0  46365-3 0  9993
2 39440  97.8606 228.1153 0062223 130.2916 230.3764 14.91003273639864
AO-73
1 39444U 13066AE  25284.16599566  .00011451  00000-0  81004-3 0  9996
2 39444  97.7984 246.7801 0039049 332.5604  27.3559 15.04408511642154
DTUSAT-2
1 40030U 14033W   25283.42600096  .00010670  00000-0  65622-3 0  9993
2 40030  98.0697 261.4226 0009294  18.4750 341.6813 15.10204523614921
EO-80
1 40032U 14033Y   25283.43962573  .00009710  00000-0  59647-3 0  9990
2 40032  98.0573 260.9209 0006522 317.1671  42.9049 15.10295039614905
LILACSAT-2
1 40908U 15049K   25284.30231632  .00014795  00000-0  34622-3 0  9997
2 40908  97.4995 307.8530 0010514  79.4129 280.8301 15.42180350557272
IO-86
1 40931U 15052B   25151.18580175  .00001241  00000-0  78118-4 0  9996
2 40931   6.0006  24.0987 0012733 338.8432  21.1169 14.78805930523159
Horyu-4
1 41340U 16012D   25283.97391617  .00038693  00000-0  81954-3 0  9994
2 41340  30.9968  18.6402 0003502 271.3218  88.7029 15.43850730531823
Lapan A3
1 41603U 16040E   25284.28460262  .00004192  00000-0  14290-3 0  9991
2 41603  97.1429 284.1434 0010755 176.4121 183.7200 15.30839687516704
CAS-2T
1 41847U 16066G   25284.19168857  .00002433  00000-0  35132-3 0  9998
2 41847  98.4097 357.5420 0345185 164.2484 196.9776 14.43863192468851
CAS-4B
1 42759U 17034B   25284.31920477  .01479094  16109-2  12272-2 0  9995
2 42759  42.9919 290.4809 0013155  99.7083 260.5287 16.13156053462122
CAS-4A
1 42761U 17034D   25281.34159269  .04203186  90411-5  12507-2 0  9993
2 42761  42.9927 303.5081 0008135  81.2710 278.9099 16.26032227461692
TechnoSat
1 42829U 17042E   25283.88290698  .00005134  00000-0  38814-3 0  9999
2 42829  97.3997  86.8445 0017977 224.4976 135.4807 15.02644291449235
AO-91
1 43017U 17073E   25284.06772630  .00009451  00000-0  45984-3 0  9997
2 43017  97.5005 151.7538 0167731 104.9888 256.9974 15.06986252427791
S-Net D
1 43186U 18014G   25284.28807493  .00006881  00000-0  39048-3 0  9998
2 43186  97.5479 185.9341 0009611 147.8703 212.3115 15.13228846421072
S-Net B
1 43187U 18014H   25284.29515367  .00006311  00000-0  35863-3 0  9995
2 43187  97.5482 185.9188 0010427 144.4909 215.7018 15.13205558421078
S-Net A
1 43188U 18014J   25284.28802376  .00006905  00000-0  39173-3 0  9991
2 43188  97.5490 186.0786 0010281 145.0465 215.1443 15.13234221421071
S-Net C
1 43189U 18014K   25284.29788549  .00006131  00000-0  34846-3 0  9991
2 43189  97.5507 186.1235 0011982 139.5379 220.6746 15.13199422419620
Ten-Koh
1 43677U 18084G   25284.06920051  .00002759  00000-0  21981-3 0  9999
2 43677  98.0744 101.2197 0008377 203.0364 157.0485 15.01232196378766
PO-101
1 43678U 18084H   25284.24736331  .00003444  00000-0  28967-3 0  9999
2 43678  98.1067 105.1944 0007343 223.1116 136.9532 14.98962139378906
QO-100
1 43700U 18090A   25284.20923890  .00000139  00000-0  00000-0 0  9999
2 43700   0.0160 147.7490 0002103  94.7281 238.7090  1.00272540 25188
MinXSS-2
1 43758U 18099A   25284.13307111  .00022823  00000-0  77587-3 0  9996
2 43758  97.4879 350.8213 0011670  83.0990 277.1578 15.30401392375830
AO-95
1 43770U 18099N   25284.15563507  .00011603  00000-0  54361-3 0  9994
2 43770  97.4779 340.9681 0011402 136.6212 223.5922 15.19806761375303
SNUSat 2
1 43782U 18099AA  25284.14599729  .00009025  00000-0  46336-3 0  9999
2 43782  97.4455 336.6651 0013156  87.2974 272.9765 15.16661853375211
SnugLite
1 43784U 18099AC  25284.09221014  .00012188  00000-0  56564-3 0  9992
2 43784  97.4264 336.4604 0004790  90.4414 269.7370 15.20166989375385
ITASat 1
1 43786U 18099AE  25284.09951716  .00008483  00000-0  46036-3 0  9999
2 43786  97.4420 335.7459 0014999 135.4659 224.7781 15.14695144375148
EAGLET 1
1 43790U 18099AJ  25284.10989048  .00005100  00000-0  31525-3 0  9995
2 43790  97.4614 335.2638 0013103 122.2304 238.0198 15.10216603374705
ESEO
1 43792U 18099AL  25284.11335112  .00002049  00000-0  15575-3 0  9991
2 43792  97.4348 326.8343 0014826 101.3351 258.9541 15.03126714374374
JO-97
1 43803U 18099AX  25284.10540556  .00015704  00000-0  64768-3 0  9993
2 43803  97.4514 342.2219 0008227  77.8627 282.3531 15.24117260375568
Suomi 100
1 43804U 18099AY  25284.13937882  .00011820  00000-0  53305-3 0  9999
2 43804  97.4579 341.1586 0013071  79.9729 280.2981 15.21097884375465
ISAT
1 43879U 18111D   25284.30963386  .00032857  00000-0  93573-3 0  9997
2 43879  97.5870 201.8176 0010837 110.9582 249.2822 15.35979873372647
UWE-4
1 43880U 18111E   25284.27006760  .00022483  00000-0  76437-3 0  9993
2 43880  97.5815 199.2773 0013063 125.6687 234.5771 15.30386566372516
Sparrow
1 43881U 18111F   25284.30869774  .00034633  00000-0  93409-3 0  9998
2 43881  97.6043 205.2272 0008176 133.5559 226.6365 15.37688673372756
Prox-1
1 44339U 19036A   25284.24186471  .00012918  00000-0  15240-2 0  9991
2 44339  23.9975 327.9436 0007159  52.5645 307.5504 14.82883376336379
Taurus 1
1 44530U 19059C   25284.35356363  .00008354  00000-0  14756-2 0  9990
2 44530  98.6211  69.8565 0008793  12.2310 347.9105 14.67673553322081
Duchifat 3
1 44854U 19089C   25284.27101355  .00135078  00000-0  13650-2 0  9998
2 44854  36.9361 281.2675 0008132 206.2715 153.7635 15.63930896322257
TO-108
1 44881U 19093C   25284.27974337  .00001347  00000-0  16049-3 0  9998
2 44881  97.7822 357.2952 0013683 179.6253 180.4975 14.85885525314440
FloripaSat 1
1 44885U 19093G   25284.29859035  .00007174  00000-0  58038-3 0  9999
2 44885  97.8094  12.2399 0010565 161.5538 198.6071 15.00030075315282
RS-44
1 44909U 19096E   25284.07940287  .00000021  00000-0  41520-4 0  9998
2 44909  82.5207 145.2510 0217746   7.0896 353.3199 12.79744450270484
UPMSat 2
1 46276U 20061E   25284.11510829  .12115553  24945-5  13983-3 0  9991
2 46276  97.2106   5.1352 0012001 257.8540 102.1421 16.49625583285008
SALSAT
1 46495U 20068K   25284.21923240  .00009655  00000-0  39175-3 0  9991
2 46495  97.8749 268.2079 0013188  92.7026 267.5720 15.24762210277358
